FW5346 Weather Reports


Display with metric or nautical units.
time (UTC)temp
F
wind
direction
speed
MPH
gust
MPH
rain 1hr
in
rain 24hr
in
rain mn
in
humidity
%
barometer
mb
20260504081550 38 252 10.0 15.0 0.05 0.68 0.14 93 978.1
20260504050013 41 334 7.0 12.0 0.00 0.54 0.00 84 976.0
20260504044509 41 353 3.0 9.0 0.00 0.54 0.00 83 976.3
20260504043007 42 61 0.0 6.0 0.00 0.54 0.00 83 976.8
20260504041504 42 87 7.0 13.0 0.00 0.54 0.00 82 977.3
20260504040001 43 44 5.0 11.0 0.00 0.54 0.00 82 977.7
20260504034559 43 177 3.0 15.0 0.00 0.54 0.00 82 978.0
20260504033058 43 343 7.0 17.0 0.00 0.54 0.00 82 978.3
20260504031555 43 246 8.0 16.0 0.00 0.54 0.00 82 978.4
20260504030053 43 334 12.0 24.0 0.00 0.54 0.00 81 978.0
20260504024608 43 116 22.0 44.0 0.00 0.54 0.54 82 978.3
20260504023052 43 74 13.0 31.0 0.00 0.54 0.54 81 979.1
20260504021548 43 87 16.0 58.0 0.00 0.54 0.54 80 980.1
20260504020048 44 70 34.0 64.0 0.00 0.54 0.54 79 979.5
20260504014547 43 94 38.0 61.0 0.01 0.54 0.54 80 979.5
20260504013046 43 109 49.0 72.0 0.01 0.54 0.54 80 979.3
20260504011545 44 116 53.0 73.0 0.02 0.54 0.54 80 979.6
20260504010042 44 127 46.0 74.0 0.03 0.54 0.54 81 981.0
20260504004546 44 98 57.0 82.0 0.03 0.53 0.53 81 980.1
20260504003046 43 112 55.0 79.0 0.04 0.52 0.52 81 980.6
20260504001543 43 97 53.0 79.0 0.04 0.52 0.52 82 982.1
20260504000054 43 136 53.0 71.0 0.02 0.50 0.50 82 982.9
20260503234531 43 86 37.0 72.0 0.02 0.50 0.50 82 985.6
20260503233027 43 77 21.0 37.0 0.04 0.48 0.48 84 988.0
20260503231525 42 74 19.0 44.0 0.11 0.48 0.48 85 989.4
20260503230026 42 61 22.0 39.0 0.14 0.48 0.48 87 991.3
20260503224519 40 36 20.0 32.0 0.17 0.48 0.48 89 992.5
20260503223016 39 22 14.0 21.0 0.15 0.44 0.44 88 993.4
20260503221512 40 1 17.0 20.0 0.10 0.36 0.36 87 994.2
20260503220009 40 360 11.0 17.0 0.11 0.34 0.34 86 995.1
20260503214509 40 359 9.0 17.0 0.09 0.31 0.31 86 995.0
20260503213010 41 13 9.0 30.0 0.09 0.28 0.28 85 995.3
20260503211505 42 55 14.0 29.0 0.10 0.25 0.25 87 996.0
20260503210005 42 360 16.0 24.0 0.13 0.23 0.23 86 996.3
20260503204502 42 19 17.0 22.0 0.17 0.23 0.23 85 997.0
20260503203113 42 10 16.0 21.0 0.16 0.20 0.20 84 998.1
20260503201556 42 355 16.0 20.0 0.15 0.15 0.15 80 998.8
20260503200052 43 32 14.0 25.0 0.10 0.10 0.10 78 999.7
20260503194554 43 25 14.0 20.0 0.06 0.06 0.06 76 1000.1
20260503193051 44 49 11.0 28.0 0.04 0.04 0.04 73 1001.3
20260503191543 46 44 12.0 19.0 0.00 0.00 0.00 65 1002.4
20260503190045 48 73 10.0 20.0 0.00 0.00 0.00 57 1003.5
20260503184539 49 92 11.0 29.0 0.00 0.00 0.00 49 1003.6
20260503183037 50 104 19.0 27.0 0.00 0.00 0.00 45 1004.3
20260503181535 52 126 15.0 25.0 0.00 0.00 0.00 37 1004.8
20260503180034 52 130 16.0 29.0 0.00 0.00 0.00 34 1005.2
20260503174534 52 138 18.0 32.0 0.00 0.00 0.00 32 1005.1
20260503173045 52 93 22.0 39.0 0.00 0.00 0.00 31 1005.7
20260503171535 52 104 18.0 31.0 0.00 0.00 0.00 35 1006.3
20260503140106 53 343 19.0 29.0 0.00 0.00 0.00 46 1010.1